Location: McFarlands Corners
(41.4117°N, 81.3382°W)
Time: 18:20:01
(UTC+00:00)

Vanguard 1 Rocket - Pass Details

Date: 24 February 2026
Orbit: 653 x 4214 km, 34.3° (Epoch: 8 March)

Event Time Altitude Azimuth Distance (km) Brightness Sun altitude
Rises 21:12:53 0° 273° (W) 4,763 12.0 19.5°
Reaches altitude 10° 21:15:29 10° 268° (W) 4,114 11.9 19.1°
Maximum altitude 21:26:57 54° 195° (SSW) 3,133 10.8 17.2°
Drops below altitude 10° 21:47:56 10° 127° (SE) 7,097 11.7 13.8°
Sets 21:54:18 0° 123° (ESE) 8,356 12.0 12.7°
